Flag for Norway Weather past 2 weeks in Mo i Rana, Norway

Now
41 °F

Partly sunny.


Feels Like: 36 °F
Forecast: 27 / 41 °F
Wind: 7 mph from Northwest

Location: Mo I Rana / Rossvoll

Current Time: Apr 27, 2015 at 2:32:11 PM

Latest Report: Apr 27, 2015 at 1:20 PM


Visibility: N/A

Pressure: 29.62 "Hg

Humidity: 70%

Dew point: 32 °F

Location of Mo i RanaLocation

Historic Weather in Mo i Rana — Graph

°F

Mo i Rana temperature yesterday

Maximum temperature yesterday: 39 °F (at 5:50 PM)
Minimum temperature yesterday: 36 °F (at 9:50 AM)
Average temperature yesterday: 38 °F

Past Weeks' High & Low Weather Summary

 TemperatureHumidityPressure
High46 °F (Apr 16, 2:20 PM)100% (Apr 12, 8:20 PM)30.30 "Hg (Apr 12, 8:20 PM)
Low23 °F (Apr 14, 5:50 AM)42% (Apr 14, 1:20 PM)29.21 "Hg (Apr 23, 9:50 AM)
Average37 °F78%29.76 "Hg
* Reported Apr 12 1:50 PM — Apr 27 1:20 PM, Mo i Rana, Weather by CustomWeather, © 2015

Note: Actual official high and low records may vary slightly from our data, if they occured in-between our weather recording intervals... More about our weather records

Advertising

Mo i Rana weather history for previous 24 hours

 ConditionsComfort  
Time TempWeatherWind HumidityBarometerVisibility
1:20 PM
Mon, Apr 27
41 °FPartly sunny.7 mph70%29.62 "HgN/A
12:50 PM39 °FPartly sunny.1 mph75%29.62 "HgN/A
12:20 PM41 °FPartly sunny.1 mph70%29.62 "HgN/A
11:50 AM39 °FPartly sunny.2 mph75%29.62 "HgN/A
11:20 AM41 °FQuite cool.1 mph70%29.62 "HgN/A
10:50 AM39 °FBroken clouds.1 mph75%29.62 "HgN/A
9:50 AM37 °FBroken clouds.No wind81%29.62 "HgN/A
8:50 AM36 °FBroken clouds.No wind93%29.62 "Hg3 mi
8:20 AM34 °FBroken clouds.2 mph100%29.62 "Hg3 mi
7:50 AM34 °FBroken clouds.2 mph93%29.62 "Hg3 mi
6:50 AM32 °FBroken clouds.2 mph100%29.62 "Hg5 mi
6:20 AM32 °FSnow. Broken clouds.1 mph100%29.62 "HgN/A
5:50 AM32 °FSnow. Partly sunny.1 mph100%29.62 "HgN/A
10:50 PM
Sun, Apr 26
37 °FSprinkles. Partly cloudy.12 mph75%29.59 "HgN/A
10:20 PM37 °FScattered showers. Broken clouds.10 mph75%29.56 "HgN/A
9:50 PM37 °FScattered showers. Broken clouds.12 mph70%29.56 "HgN/A
9:20 PM39 °FScattered showers. Broken clouds.10 mph65%29.56 "HgN/A
8:50 PM39 °FScattered showers. Broken clouds.13 mph65%29.56 "HgN/A
8:20 PM39 °FSprinkles. Broken clouds.14 mph65%29.56 "HgN/A
7:50 PM39 °FScattered showers. Broken clouds.13 mph65%29.53 "HgN/A
6:50 PM39 °FScattered showers. Broken clouds.14 mph65%29.53 "HgN/A
6:20 PM39 °FScattered showers. Partly sunny.15 mph65%29.53 "HgN/A
5:50 PM39 °FScattered showers. Partly sunny.9 mph65%29.53 "HgN/A
4:50 PM37 °FScattered showers. Partly sunny.14 mph70%29.53 "HgN/A
4:20 PM37 °FScattered showers. Partly sunny.21 mph70%29.53 "HgN/A
3:50 PM37 °FScattered showers. Partly sunny.23 mph70%29.53 "HgN/A
3:20 PM37 °FPartly sunny.23 mph65%29.53 "HgN/A
2:50 PM37 °FPartly sunny.16 mph60%29.53 "HgN/A
Weather by CustomWeather, © 2015

See weather overviewHow to use our weather pages